Weather History for Council Bluffs, IA

Change the Weather History Date:

Saturday, May 25, 2013

  Actual Average Record
Temperature  
Mean Temperature 66 °F -  
Max Temperature 77 °F 73 °F 89 °F (2008)
Min Temperature 55 °F 53 °F 44 °F (2002)
Cooling Degree Days 1    
Growing Degree Days 16 (Base 50)    
Moisture  
Dew Point 58 °F    
Average Humidity 83    
Maximum Humidity 100    
Minimum Humidity 52    
Precipitation  
Precipitation 0.32 in - - ()
Sea Level Pressure  
Sea Level Pressure 30.04 in    
Wind  
Wind Speed 14 mph (ESE)    
Max Wind Speed 20 mph    
Max Gust Speed 28 mph    
Visibility 10 miles    
Events Rain    
Averages and records for this station are not official NWS values.
T = Trace of Precipitation, MM = Missing Value Source: NWS Daily Summary

Daily Weather History Graph

Daily Weather History Graph

Search for Another Location

Airport:

Trip Planner

Search our weather history database for the weather conditions in past years. The results will help you decide how hot, cold, wet, or windy it might be!

Date:

Astronomy

May. 25, 2013 Rise Set
Actual Time 5:56 AM CDT 8:44 PM CDT
Civil Twilight 5:23 AM CDT 9:16 PM CDT
Nautical Twilight 4:42 AM CDT 9:57 PM CDT
Astronomical Twilight 3:55 AM CDT 10:45 PM CDT
Moon 9:33 PM CDT (5/25) 6:24 AM CDT (5/25)
Length of Visible Light 15h 53m
Length of Day
14h 48m
Full, 100% of the Moon is Illuminated
May 25
Full
May 31
Last Quarter
Jun 8
New
Jun 16
First Quarter
Jun 23
Full

Hourly Weather History & Observations

Time (CDT) Temp. Dew Point Humidity Pressure Visibility Wind Dir Wind Speed Gust Speed Precip Events Conditions
12:15 AM 64.4 °F 46.4 °F 52% 30.13 in 10.0 mi SE 13.8 mph - N/A   Overcast
12:35 AM 62.6 °F 46.4 °F 55% 30.11 in 10.0 mi SE 17.3 mph - N/A   Overcast
12:55 AM 62.6 °F 44.6 °F 52% 30.11 in 10.0 mi SE 16.1 mph 21.9 mph N/A   Overcast
1:15 AM 62.6 °F 44.6 °F 52% 30.11 in 10.0 mi SE 16.1 mph - N/A   Overcast
1:35 AM 62.6 °F 44.6 °F 52% 30.10 in 10.0 mi SE 16.1 mph - N/A   Overcast
1:55 AM 62.6 °F 44.6 °F 52% 30.09 in 10.0 mi SE 15.0 mph - N/A   Overcast
2:15 AM 62.6 °F 44.6 °F 52% 30.09 in 10.0 mi SSE 15.0 mph 21.9 mph N/A   Overcast
2:35 AM 62.6 °F 46.4 °F 55% 30.07 in 10.0 mi SSE 17.3 mph 23.0 mph N/A   Overcast
2:55 AM 62.6 °F 44.6 °F 52% 30.07 in 10.0 mi SSE 17.3 mph 27.6 mph N/A   Overcast
3:15 AM 62.6 °F 44.6 °F 52% 30.06 in 10.0 mi SSE 18.4 mph - N/A   Overcast
3:35 AM 62.6 °F 44.6 °F 52% 30.05 in 10.0 mi SSE 16.1 mph 21.9 mph N/A   Overcast
3:55 AM 62.6 °F 46.4 °F 55% 30.03 in 10.0 mi SSE 17.3 mph 26.5 mph N/A   Overcast
4:15 AM 62.6 °F 46.4 °F 55% 30.03 in 10.0 mi SSE 17.3 mph 23.0 mph N/A   Overcast
4:35 AM 62.6 °F 46.4 °F 55% 30.02 in 10.0 mi SSE 19.6 mph - N/A   Overcast
4:55 AM 60.8 °F 50.0 °F 68% 30.01 in 10.0 mi SSE 16.1 mph 25.3 mph N/A Rain Light Rain
5:15 AM 60.8 °F 51.8 °F 72% 30.05 in 9.0 mi SSW 11.5 mph 23.0 mph N/A Rain Light Rain
5:35 AM 57.2 °F 55.4 °F 94% 30.10 in 5.0 mi NNW 6.9 mph - N/A Rain Rain
5:55 AM 57.2 °F 55.4 °F 94% 30.09 in 5.0 mi East 4.6 mph - 0.09 in Rain Light Rain
6:15 AM 55.4 °F 55.4 °F 100% 30.08 in 5.0 mi ENE 6.9 mph - N/A Rain Rain
6:35 AM 57.2 °F 55.4 °F 94% 30.05 in 5.0 mi ESE 13.8 mph - N/A Rain Rain
6:55 AM 57.2 °F 55.4 °F 94% 30.07 in 9.0 mi East 4.6 mph 19.6 mph 0.19 in Rain Light Rain
7:15 AM 57.2 °F 55.4 °F 94% 30.07 in 10.0 mi SE 5.8 mph - N/A   Light Drizzle
7:35 AM 57.2 °F 57.2 °F 100% 30.05 in 8.0 mi SE 12.7 mph - N/A   Light Drizzle
7:55 AM 57.2 °F 57.2 °F 100% 30.04 in 9.0 mi SE 15.0 mph - 0.02 in   Light Drizzle
8:15 AM 57.2 °F 57.2 °F 100% 30.05 in 10.0 mi Variable 4.6 mph 13.8 mph N/A Rain Light Rain
8:35 AM 57.2 °F 57.2 °F 100% 30.11 in 9.0 mi North 6.9 mph 13.8 mph N/A Rain Light Rain
8:55 AM 57.2 °F 57.2 °F 100% 30.11 in 8.0 mi NE 4.6 mph - 0.01 in Rain Light Rain
9:15 AM 57.2 °F 57.2 °F 100% 30.10 in 10.0 mi ESE 5.8 mph - N/A   Overcast
9:35 AM 57.2 °F 57.2 °F 100% 30.12 in 10.0 mi Calm Calm - N/A   Overcast
9:55 AM 57.2 °F 57.2 °F 100% 30.05 in 10.0 mi East 11.5 mph - 0.01 in   Overcast
10:15 AM 57.2 °F 57.2 °F 100% 30.02 in 9.0 mi SE 16.1 mph 21.9 mph N/A   Mostly Cloudy
10:35 AM 59.0 °F 59.0 °F 100% 30.03 in 10.0 mi ESE 16.1 mph 21.9 mph N/A   Mostly Cloudy
10:55 AM 59.0 °F 59.0 °F 100% 30.07 in 10.0 mi East 11.5 mph - N/A   Overcast
11:15 AM 59.0 °F 59.0 °F 100% 30.05 in 10.0 mi East 19.6 mph - N/A   Overcast
11:35 AM 59.0 °F 59.0 °F 100% 30.05 in 10.0 mi ESE 16.1 mph 23.0 mph N/A   Overcast
11:55 AM 60.8 °F 59.0 °F 94% 30.05 in 10.0 mi ESE 18.4 mph - N/A   Overcast
12:15 PM 62.6 °F 60.8 °F 94% 30.06 in 10.0 mi ESE 13.8 mph - N/A   Mostly Cloudy
12:35 PM 62.6 °F 60.8 °F 94% 30.06 in 10.0 mi East 12.7 mph - N/A   Mostly Cloudy
12:55 PM 64.4 °F 60.8 °F 88% 30.06 in 10.0 mi SE 13.8 mph 19.6 mph N/A   Mostly Cloudy
1:15 PM 64.4 °F 62.6 °F 94% 30.05 in 10.0 mi East 11.5 mph - N/A   Mostly Cloudy
1:35 PM 66.2 °F 62.6 °F 88% 30.05 in 10.0 mi ESE 11.5 mph - N/A   Mostly Cloudy
1:55 PM 68.0 °F 64.4 °F 88% 30.04 in 10.0 mi ESE 11.5 mph - N/A   Scattered Clouds
2:15 PM 69.8 °F 66.2 °F 88% 30.03 in 10.0 mi ESE 12.7 mph - N/A   Scattered Clouds
2:35 PM 71.6 °F 68.0 °F 88% 30.03 in 10.0 mi East 10.4 mph - N/A   Partly Cloudy
2:55 PM 73.4 °F 68.0 °F 83% 30.03 in 10.0 mi East 13.8 mph - N/A   Clear
3:15 PM 73.4 °F 68.0 °F 83% 30.02 in 10.0 mi East 10.4 mph 18.4 mph N/A   Clear
3:35 PM 73.4 °F 68.0 °F 83% 30.02 in 10.0 mi East 13.8 mph - N/A   Clear
3:55 PM 73.4 °F 68.0 °F 83% 30.02 in 10.0 mi East 13.8 mph 20.7 mph N/A   Clear
4:15 PM 75.2 °F 68.0 °F 78% 30.02 in 10.0 mi East 11.5 mph 20.7 mph N/A   Clear
4:35 PM 73.4 °F 68.0 °F 83% 30.01 in 10.0 mi ESE 13.8 mph - N/A   Mostly Cloudy
4:55 PM 75.2 °F 68.0 °F 78% 30.01 in 10.0 mi East 16.1 mph - N/A   Mostly Cloudy
5:15 PM 75.2 °F 69.8 °F 83% 30.00 in 10.0 mi ESE 12.7 mph 21.9 mph N/A   Partly Cloudy
5:35 PM 77.0 °F 68.0 °F 74% 30.00 in 10.0 mi ESE 15.0 mph - N/A   Mostly Cloudy
5:55 PM 77.0 °F 68.0 °F 74% 29.99 in 10.0 mi SE 12.7 mph - N/A   Mostly Cloudy
6:15 PM 77.0 °F 66.2 °F 69% 29.99 in 10.0 mi SE 11.5 mph - N/A   Mostly Cloudy
6:35 PM 75.2 °F 66.2 °F 73% 29.98 in 10.0 mi ESE 11.5 mph - N/A   Overcast
6:55 PM 75.2 °F 68.0 °F 78% 29.98 in 10.0 mi ESE 10.4 mph - N/A   Overcast
7:15 PM 75.2 °F 66.2 °F 73% 29.98 in 10.0 mi ESE 10.4 mph - N/A   Overcast
7:35 PM 73.4 °F 68.0 °F 83% 29.98 in 10.0 mi ESE 11.5 mph 18.4 mph N/A   Overcast
7:55 PM 71.6 °F 66.2 °F 83% 29.99 in 10.0 mi East 13.8 mph 20.7 mph N/A   Overcast
8:15 PM 68.0 °F 64.4 °F 88% 29.98 in 10.0 mi East 16.1 mph - N/A   Mostly Cloudy
8:35 PM 66.2 °F 62.6 °F 88% 29.98 in 10.0 mi East 16.1 mph 23.0 mph N/A   Mostly Cloudy
8:55 PM 64.4 °F 62.6 °F 94% 29.99 in 10.0 mi East 16.1 mph 24.2 mph N/A   Mostly Cloudy
9:15 PM 64.4 °F 62.6 °F 94% 30.00 in 10.0 mi East 16.1 mph - N/A   Overcast
9:35 PM 62.6 °F 60.8 °F 94% 30.02 in 10.0 mi East 16.1 mph - N/A   Overcast
9:55 PM 62.6 °F 60.8 °F 94% 30.03 in 10.0 mi East 15.0 mph 23.0 mph N/A   Mostly Cloudy
10:15 PM 62.6 °F 60.8 °F 94% 30.03 in 10.0 mi East 19.6 mph - N/A   Mostly Cloudy
10:35 PM 62.6 °F 60.8 °F 94% 30.04 in 10.0 mi East 16.1 mph 23.0 mph N/A   Overcast
10:55 PM 62.6 °F 60.8 °F 94% 30.05 in 10.0 mi East 13.8 mph 23.0 mph N/A   Mostly Cloudy
11:15 PM 60.8 °F 60.8 °F 100% 30.04 in 10.0 mi ESE 15.0 mph - N/A   Scattered Clouds
11:35 PM 60.8 °F 60.8 °F 100% 30.03 in 10.0 mi ESE 11.5 mph 20.7 mph N/A   Clear
11:55 PM 60.8 °F 60.8 °F 100% 30.03 in 10.0 mi ESE 10.4 mph 18.4 mph N/A   Partly Cloudy